Time,TemperatureF,DewpointF,PressureIn,WindDirection,WindDirectionDegrees,WindSpeedMPH,WindSpeedGustMPH,Humidity,HourlyPrecipIn,Conditions,Clouds,dailyrainin,SoftwareType,DateUTC
2013-05-15 00:00:00,54.5,45.3,29.60,East,79,4.0,5.0,71,0.00,,,0.00,Wunderground v.1.15,2013-05-15 04:00:00,
2013-05-15 00:05:00,54.3,45.5,29.59,ENE,69,3.0,5.0,72,0.00,,,0.00,Wunderground v.1.15,2013-05-15 04:05:00,
2013-05-15 00:10:00,54.2,45.4,29.59,East,82,4.0,4.0,72,0.00,,,0.00,Wunderground v.1.15,2013-05-15 04:10:00,
2013-05-15 00:15:00,54.2,45.7,29.58,East,82,5.0,5.0,73,0.00,,,0.00,Wunderground v.1.15,2013-05-15 04:15:00,
2013-05-15 00:20:00,54.4,45.9,29.58,East,86,4.0,4.0,73,0.00,,,0.00,Wunderground v.1.15,2013-05-15 04:20:00,
2013-05-15 00:25:00,54.8,45.9,29.58,East,92,4.0,6.0,72,0.00,,,0.00,Wunderground v.1.15,2013-05-15 04:25:00,
2013-05-15 00:30:00,54.8,45.9,29.58,ENE,76,4.0,4.0,72,0.00,,,0.00,Wunderground v.1.15,2013-05-15 04:30:00,
2013-05-15 00:35:00,54.8,45.9,29.57,East,89,4.0,4.0,72,0.00,,,0.00,Wunderground v.1.15,2013-05-15 04:35:00,
2013-05-15 00:40:00,54.8,45.9,29.56,East,79,3.0,5.0,72,0.00,,,0.00,Wunderground v.1.15,2013-05-15 04:40:00,
2013-05-15 00:45:00,54.8,45.9,29.56,ENE,78,3.0,5.0,72,0.00,,,0.00,Wunderground v.1.15,2013-05-15 04:45:00,
2013-05-15 00:55:00,55.1,46.2,29.55,East,80,4.0,4.0,72,0.00,,,0.00,Wunderground v.1.15,2013-05-15 04:55:00,
2013-05-15 01:00:00,55.1,46.2,29.55,East,92,4.0,4.0,72,0.00,,,0.00,Wunderground v.1.15,2013-05-15 05:00:00,
2013-05-15 01:10:00,54.9,46.4,29.54,ENE,61,3.0,5.0,73,0.00,,,0.00,Wunderground v.1.15,2013-05-15 05:10:00,
2013-05-15 01:15:00,55.1,46.6,29.54,ENE,78,4.0,5.0,73,0.00,,,0.00,Wunderground v.1.15,2013-05-15 05:15:00,
2013-05-15 01:20:00,55.2,46.7,29.53,ENE,73,4.0,4.0,73,0.00,,,0.00,Wunderground v.1.15,2013-05-15 05:20:00,
2013-05-15 01:25:00,55.2,46.7,29.53,East,83,5.0,5.0,73,0.00,,,0.00,Wunderground v.1.15,2013-05-15 05:25:00,
2013-05-15 01:30:00,55.3,46.8,29.52,East,80,5.0,5.0,73,0.00,,,0.00,Wunderground v.1.15,2013-05-15 05:30:00,
2013-05-15 01:40:00,55.5,47.0,29.51,ENE,76,5.0,5.0,73,0.00,,,0.00,Wunderground v.1.15,2013-05-15 05:40:00,
2013-05-15 01:45:00,55.7,47.2,29.51,East,83,4.0,5.0,73,0.00,,,0.00,Wunderground v.1.15,2013-05-15 05:45:00,
2013-05-15 01:50:00,55.8,47.3,29.51,East,91,3.0,3.0,73,0.00,,,0.00,Wunderground v.1.15,2013-05-15 05:50:00,
2013-05-15 01:55:00,55.8,47.3,29.50,ESE,111,2.0,3.0,73,0.00,,,0.00,Wunderground v.1.15,2013-05-15 05:55:00,
2013-05-15 02:00:00,55.7,46.8,29.50,East,84,2.0,2.0,72,0.00,,,0.00,Wunderground v.1.15,2013-05-15 06:00:00,
2013-05-15 02:05:00,55.7,47.2,29.50,East,101,2.0,2.0,73,0.00,,,0.00,Wunderground v.1.15,2013-05-15 06:05:00,
2013-05-15 02:15:00,55.2,46.7,29.50,East,84,1.0,2.0,73,0.00,,,0.00,Wunderground v.1.15,2013-05-15 06:15:00,
2013-05-15 02:20:00,54.9,46.8,29.49,ESE,103,2.0,2.0,74,0.00,,,0.00,Wunderground v.1.15,2013-05-15 06:20:00,
2013-05-15 02:25:00,54.5,46.7,29.49,East,85,1.0,2.0,75,0.00,,,0.00,Wunderground v.1.15,2013-05-15 06:25:00,
2013-05-15 02:30:00,54.5,46.7,29.49,ENE,66,1.0,1.0,75,0.00,,,0.00,Wunderground v.1.15,2013-05-15 06:30:00,
2013-05-15 02:35:00,54.4,46.6,29.48,East,79,1.0,2.0,75,0.00,,,0.00,Wunderground v.1.15,2013-05-15 06:35:00,
2013-05-15 02:45:00,54.5,46.7,29.47,ENE,71,1.0,2.0,75,0.00,,,0.00,Wunderground v.1.15,2013-05-15 06:45:00,
2013-05-15 02:50:00,54.7,46.9,29.48,SSE,148,1.0,1.0,75,0.00,,,0.00,Wunderground v.1.15,2013-05-15 06:50:00,
2013-05-15 02:55:00,55.0,46.9,29.48,East,88,1.0,2.0,74,0.00,,,0.00,Wunderground v.1.15,2013-05-15 06:55:00,
2013-05-15 03:00:00,54.8,47.0,29.47,NE,54,2.0,2.0,75,0.00,,,0.00,Wunderground v.1.15,2013-05-15 07:00:00,
2013-05-15 03:05:00,54.6,46.8,29.47,East,87,2.0,2.0,75,0.00,,,0.00,Wunderground v.1.15,2013-05-15 07:05:00,
2013-05-15 03:10:00,54.5,46.7,29.47,East,80,2.0,2.0,75,0.00,,,0.00,Wunderground v.1.15,2013-05-15 07:10:00,
2013-05-15 03:20:00,54.2,46.8,29.47,East,82,3.0,3.0,76,0.00,,,0.00,Wunderground v.1.15,2013-05-15 07:20:00,
2013-05-15 03:25:00,54.5,46.7,29.47,East,80,2.0,4.0,75,0.00,,,0.00,Wunderground v.1.15,2013-05-15 07:25:00,
2013-05-15 03:30:00,54.1,46.3,29.46,ENE,67,2.0,5.0,75,0.00,,,0.00,Wunderground v.1.15,2013-05-15 07:30:00,
2013-05-15 03:35:00,53.9,46.5,29.47,East,81,3.0,6.0,76,0.00,,,0.00,Wunderground v.1.15,2013-05-15 07:35:00,
2013-05-15 03:40:00,54.1,47.0,29.47,ESE,110,2.0,2.0,77,0.00,,,0.00,Wunderground v.1.15,2013-05-15 07:40:00,
2013-05-15 03:45:00,54.4,47.0,29.46,ENE,69,2.0,2.0,76,0.00,,,0.00,Wunderground v.1.15,2013-05-15 07:45:00,
2013-05-15 03:55:00,55.1,47.7,29.46,East,88,2.0,2.0,76,0.00,,,0.00,Wunderground v.1.15,2013-05-15 07:55:00,
2013-05-15 04:00:00,55.1,47.3,29.47,ENE,67,1.0,4.0,75,0.00,,,0.00,Wunderground v.1.15,2013-05-15 08:00:00,
2013-05-15 04:05:00,54.7,46.9,29.47,ENE,65,1.0,4.0,75,0.00,,,0.00,Wunderground v.1.15,2013-05-15 08:05:00,
2013-05-15 04:10:00,54.1,46.7,29.47,ENE,70,1.0,2.0,76,0.00,,,0.00,Wunderground v.1.15,2013-05-15 08:10:00,
2013-05-15 04:15:00,53.8,46.8,29.47,ENE,68,2.0,2.0,77,0.00,,,0.00,Wunderground v.1.15,2013-05-15 08:15:00,
2013-05-15 04:25:00,53.6,46.9,29.48,ENE,71,1.0,2.0,78,0.00,,,0.00,Wunderground v.1.15,2013-05-15 08:25:00,
2013-05-15 04:30:00,53.5,46.8,29.49,East,86,1.0,1.0,78,0.00,,,0.00,Wunderground v.1.15,2013-05-15 08:30:00,
2013-05-15 04:35:00,52.7,45.7,29.49,South,180,1.0,2.0,77,0.00,,,0.00,Wunderground v.1.15,2013-05-15 08:35:00,
2013-05-15 04:40:00,50.0,43.4,29.50,SW,236,2.0,2.0,78,0.00,,,0.00,Wunderground v.1.15,2013-05-15 08:40:00,
2013-05-15 04:45:00,48.8,43.9,29.51,WSW,238,2.0,2.0,83,0.00,,,0.00,Wunderground v.1.15,2013-05-15 08:45:00,
2013-05-15 04:55:00,48.8,44.5,29.51,West,259,3.0,5.0,85,0.00,,,0.00,Wunderground v.1.15,2013-05-15 08:55:00,
2013-05-15 05:05:00,52.6,46.9,29.52,WNW,301,5.0,5.0,81,0.00,,,0.00,Wunderground v.1.15,2013-05-15 09:05:00,
2013-05-15 05:10:00,51.6,45.6,29.53,WNW,298,3.0,3.0,80,0.00,,,0.00,Wunderground v.1.15,2013-05-15 09:10:00,
2013-05-15 05:20:00,49.9,45.3,29.54,NNW,337,1.0,6.0,84,0.00,,,0.00,Wunderground v.1.15,2013-05-15 09:20:00,
2013-05-15 05:25:00,50.0,45.4,29.54,NNW,333,2.0,6.0,84,0.00,,,0.00,Wunderground v.1.15,2013-05-15 09:25:00,
2013-05-15 05:30:00,49.9,44.9,29.54,WSW,254,2.0,5.0,83,0.00,,,0.00,Wunderground v.1.15,2013-05-15 09:30:00,
2013-05-15 05:35:00,49.6,45.0,29.55,WSW,245,4.0,6.0,84,0.00,,,0.00,Wunderground v.1.15,2013-05-15 09:35:00,
2013-05-15 05:40:00,49.3,44.7,29.55,WSW,249,6.0,6.0,84,0.00,,,0.00,Wunderground v.1.15,2013-05-15 09:40:00,
2013-05-15 05:50:00,48.1,43.8,29.56,WSW,242,6.0,6.0,85,0.00,,,0.00,Wunderground v.1.15,2013-05-15 09:50:00,
2013-05-15 05:55:00,47.6,43.9,29.56,WSW,244,7.0,7.0,87,0.00,,,0.00,Wunderground v.1.15,2013-05-15 09:55:00,
2013-05-15 06:00:00,47.3,43.6,29.57,WSW,241,7.0,9.0,87,0.00,,,0.00,Wunderground v.1.15,2013-05-15 10:00:00,
2013-05-15 06:05:00,47.5,44.1,29.57,WSW,244,7.0,9.0,88,0.00,,,0.00,Wunderground v.1.15,2013-05-15 10:05:00,
2013-05-15 06:10:00,47.2,43.5,29.57,WSW,246,7.0,7.0,87,0.00,,,0.00,Wunderground v.1.15,2013-05-15 10:10:00,
2013-05-15 06:15:00,47.2,44.1,29.57,WSW,247,7.0,7.0,89,0.00,,,0.00,Wunderground v.1.15,2013-05-15 10:15:00,
2013-05-15 06:25:00,47.4,43.7,29.58,WSW,246,8.0,8.0,87,0.00,,,0.00,Wunderground v.1.15,2013-05-15 10:25:00,
2013-05-15 06:30:00,47.1,43.7,29.58,WSW,246,8.0,8.0,88,0.00,,,0.00,Wunderground v.1.15,2013-05-15 10:30:00,
2013-05-15 06:35:00,47.0,43.6,29.58,WSW,248,7.0,8.0,88,0.00,,,0.00,Wunderground v.1.15,2013-05-15 10:35:00,
2013-05-15 06:40:00,47.1,44.0,29.59,WSW,248,7.0,7.0,89,0.00,,,0.00,Wunderground v.1.15,2013-05-15 10:40:00,
2013-05-15 06:45:00,47.2,43.8,29.59,WSW,256,7.0,8.0,88,0.00,,,0.00,Wunderground v.1.15,2013-05-15 10:45:00,
2013-05-15 06:55:00,46.7,43.3,29.60,WSW,257,7.0,8.0,88,0.00,,,0.00,Wunderground v.1.15,2013-05-15 10:55:00,
2013-05-15 07:05:00,46.7,43.3,29.60,WSW,250,7.0,7.0,88,0.00,,,0.00,Wunderground v.1.15,2013-05-15 11:05:00,
2013-05-15 07:15:00,46.3,42.9,29.61,West,259,6.0,7.0,88,0.00,,,0.00,Wunderground v.1.15,2013-05-15 11:15:00,
2013-05-15 07:20:00,46.1,43.0,29.61,West,259,6.0,6.0,89,0.00,,,0.00,Wunderground v.1.15,2013-05-15 11:20:00,
2013-05-15 07:30:00,46.5,43.4,29.62,WSW,253,5.0,5.0,89,0.00,,,0.00,Wunderground v.1.15,2013-05-15 11:30:00,
2013-05-15 07:40:00,46.8,43.4,29.63,WSW,258,4.0,5.0,88,0.00,,,0.00,Wunderground v.1.15,2013-05-15 11:40:00,
2013-05-15 07:45:00,47.0,43.3,29.63,WSW,252,5.0,8.0,87,0.00,,,0.00,Wunderground v.1.15,2013-05-15 11:45:00,
2013-05-15 07:50:00,47.3,43.3,29.63,West,267,6.0,6.0,86,0.00,,,0.00,Wunderground v.1.15,2013-05-15 11:50:00,
2013-05-15 07:55:00,47.5,43.5,29.63,West,259,6.0,6.0,86,0.00,,,0.00,Wunderground v.1.15,2013-05-15 11:55:00,
2013-05-15 08:15:00,47.2,42.6,29.64,West,278,2.0,4.0,84,0.00,,,0.00,Wunderground v.1.15,2013-05-15 12:15:00,
2013-05-15 08:20:00,46.9,42.6,29.65,WNW,284,1.0,1.0,85,0.00,,,0.00,Wunderground v.1.15,2013-05-15 12:20:00,
2013-05-15 08:25:00,46.7,42.4,29.65,NW,318,1.0,2.0,85,0.00,,,0.00,Wunderground v.1.15,2013-05-15 12:25:00,
2013-05-15 08:30:00,46.8,42.8,29.65,West,263,2.0,6.0,86,0.00,,,0.00,Wunderground v.1.15,2013-05-15 12:30:00,
2013-05-15 08:35:00,46.9,42.6,29.65,West,271,4.0,7.0,85,0.00,,,0.00,Wunderground v.1.15,2013-05-15 12:35:00,
2013-05-15 08:45:00,46.2,42.5,29.66,West,273,7.0,8.0,87,0.00,,,0.00,Wunderground v.1.15,2013-05-15 12:45:00,
2013-05-15 08:50:00,46.0,42.3,29.66,WNW,294,6.0,7.0,87,0.00,,,0.00,Wunderground v.1.15,2013-05-15 12:50:00,
2013-05-15 08:55:00,45.8,42.2,29.67,West,280,5.0,7.0,87,0.00,,,0.00,Wunderground v.1.15,2013-05-15 12:55:00,
2013-05-15 09:00:00,45.4,42.1,29.67,West,276,5.0,5.0,88,0.00,,,0.00,Wunderground v.1.15,2013-05-15 13:00:00,
2013-05-15 09:05:00,45.3,42.2,29.67,West,275,5.0,5.0,89,0.00,,,0.00,Wunderground v.1.15,2013-05-15 13:05:00,
2013-05-15 09:10:00,45.4,42.3,29.68,WNW,288,4.0,4.0,89,0.00,,,0.00,Wunderground v.1.15,2013-05-15 13:10:00,
2013-05-15 09:15:00,45.7,42.3,29.68,WNW,295,3.0,4.0,88,0.00,,,0.00,Wunderground v.1.15,2013-05-15 13:15:00,
2013-05-15 09:25:00,46.2,42.5,29.68,West,271,3.0,6.0,87,0.00,,,0.00,Wunderground v.1.15,2013-05-15 13:25:00,
2013-05-15 09:30:00,46.4,42.4,29.68,West,271,4.0,5.0,86,0.00,,,0.00,Wunderground v.1.15,2013-05-15 13:30:00,
2013-05-15 09:35:00,46.6,42.6,29.69,West,268,6.0,6.0,86,0.00,,,0.00,Wunderground v.1.15,2013-05-15 13:35:00,
2013-05-15 09:40:00,46.7,42.7,29.69,West,272,7.0,7.0,86,0.00,,,0.00,Wunderground v.1.15,2013-05-15 13:40:00,
2013-05-15 09:45:00,46.7,42.7,29.69,West,278,7.0,7.0,86,0.00,,,0.00,Wunderground v.1.15,2013-05-15 13:45:00,
2013-05-15 09:55:00,46.7,42.7,29.69,WNW,285,5.0,6.0,86,0.00,,,0.00,Wunderground v.1.15,2013-05-15 13:55:00,
2013-05-15 10:00:00,46.8,42.8,29.70,West,275,5.0,5.0,86,0.00,,,0.00,Wunderground v.1.15,2013-05-15 14:00:00,
2013-05-15 10:05:00,47.0,42.7,29.70,West,278,5.0,5.0,85,0.00,,,0.00,Wunderground v.1.15,2013-05-15 14:05:00,
2013-05-15 10:10:00,47.1,42.8,29.70,WNW,282,4.0,4.0,85,0.00,,,0.00,Wunderground v.1.15,2013-05-15 14:10:00,
2013-05-15 10:20:00,47.3,43.3,29.70,WNW,283,1.0,2.0,86,0.00,,,0.00,Wunderground v.1.15,2013-05-15 14:20:00,
2013-05-15 10:30:00,48.2,43.9,29.70,West,269,1.0,2.0,85,0.00,,,0.00,Wunderground v.1.15,2013-05-15 14:30:00,
2013-05-15 10:35:00,48.7,44.4,29.71,WSW,257,2.0,2.0,85,0.00,,,0.00,Wunderground v.1.15,2013-05-15 14:35:00,
2013-05-15 10:40:00,49.1,44.8,29.71,WSW,258,2.0,2.0,85,0.00,,,0.00,Wunderground v.1.15,2013-05-15 14:40:00,
2013-05-15 10:45:00,49.6,45.3,29.71,WSW,258,1.0,2.0,85,0.00,,,0.00,Wunderground v.1.15,2013-05-15 14:45:00,
2013-05-15 10:50:00,49.5,44.6,29.71,WSW,257,1.0,2.0,83,0.00,,,0.00,Wunderground v.1.15,2013-05-15 14:50:00,
2013-05-15 11:00:00,49.2,44.3,29.72,WSW,258,1.0,2.0,83,0.00,,,0.00,Wunderground v.1.15,2013-05-15 15:00:00,
2013-05-15 11:10:00,48.2,43.3,29.73,WSW,257,1.0,2.0,83,0.00,,,0.00,Wunderground v.1.15,2013-05-15 15:10:00,
2013-05-15 11:15:00,47.6,42.7,29.73,WSW,257,2.0,2.0,83,0.00,,,0.00,Wunderground v.1.15,2013-05-15 15:15:00,
2013-05-15 11:20:00,47.7,43.4,29.74,WSW,258,1.0,1.0,85,0.00,,,0.00,Wunderground v.1.15,2013-05-15 15:20:00,
2013-05-15 11:25:00,48.0,43.1,29.74,WSW,258,0.0,2.0,83,0.00,,,0.00,Wunderground v.1.15,2013-05-15 15:25:00,
2013-05-15 11:35:00,49.5,44.2,29.74,WSW,254,0.0,2.0,82,0.00,,,0.00,Wunderground v.1.15,2013-05-15 15:35:00,
2013-05-15 11:40:00,50.3,44.7,29.74,West,261,1.0,1.0,81,0.00,,,0.00,Wunderground v.1.15,2013-05-15 15:40:00,
2013-05-15 11:45:00,51.2,45.2,29.75,SW,232,1.0,2.0,80,0.00,,,0.00,Wunderground v.1.15,2013-05-15 15:45:00,
2013-05-15 11:50:00,51.3,45.0,29.75,West,273,2.0,2.0,79,0.00,,,0.00,Wunderground v.1.15,2013-05-15 15:50:00,
2013-05-15 12:00:00,50.1,44.5,29.75,WSW,244,5.0,8.0,81,0.00,,,0.00,Wunderground v.1.15,2013-05-15 16:00:00,
2013-05-15 12:10:00,49.8,44.8,29.76,WSW,244,8.0,8.0,83,0.00,,,0.00,Wunderground v.1.15,2013-05-15 16:10:00,
2013-05-15 12:15:00,49.9,44.9,29.76,WSW,248,8.0,8.0,83,0.00,,,0.00,Wunderground v.1.15,2013-05-15 16:15:00,
2013-05-15 12:20:00,49.7,45.1,29.76,SW,234,8.0,8.0,84,0.00,,,0.00,Wunderground v.1.15,2013-05-15 16:20:00,
2013-05-15 12:25:00,49.6,44.6,29.76,WSW,237,7.0,8.0,83,0.00,,,0.00,Wunderground v.1.15,2013-05-15 16:25:00,
2013-05-15 12:30:00,50.1,45.1,29.76,WSW,238,6.0,6.0,83,0.00,,,0.00,Wunderground v.1.15,2013-05-15 16:30:00,
2013-05-15 12:35:00,50.1,44.8,29.76,WSW,240,6.0,8.0,82,0.00,,,0.00,Wunderground v.1.15,2013-05-15 16:35:00,
2013-05-15 12:45:00,50.1,45.1,29.76,WSW,244,9.0,9.0,83,0.00,,,0.00,Wunderground v.1.15,2013-05-15 16:45:00,
2013-05-15 12:55:00,50.7,45.4,29.76,WSW,240,9.0,9.0,82,0.00,,,0.00,Wunderground v.1.15,2013-05-15 16:55:00,
2013-05-15 13:15:00,52.4,46.1,29.76,SW,232,4.0,6.0,79,0.00,,,0.00,Wunderground v.1.15,2013-05-15 17:15:00,
2013-05-15 13:25:00,52.7,45.7,29.76,SW,226,4.0,5.0,77,0.00,,,0.00,Wunderground v.1.15,2013-05-15 17:25:00,
2013-05-15 13:35:00,53.6,46.9,29.76,SW,227,2.0,4.0,78,0.00,,,0.00,Wunderground v.1.15,2013-05-15 17:35:00,
2013-05-15 13:40:00,54.3,47.2,29.77,SW,232,2.0,3.0,77,0.00,,,0.00,Wunderground v.1.15,2013-05-15 17:40:00,
2013-05-15 13:45:00,55.1,46.6,29.77,SW,229,3.0,8.0,73,0.00,,,0.00,Wunderground v.1.15,2013-05-15 17:45:00,
2013-05-15 13:50:00,55.4,46.9,29.76,WSW,244,6.0,6.0,73,0.00,,,0.00,Wunderground v.1.15,2013-05-15 17:50:00,
2013-05-15 13:55:00,55.3,47.2,29.76,SW,235,5.0,6.0,74,0.00,,,0.00,Wunderground v.1.15,2013-05-15 17:55:00,
2013-05-15 14:05:00,56.0,46.4,29.76,WSW,246,4.0,5.0,70,0.00,,,0.00,Wunderground v.1.15,2013-05-15 18:05:00,
2013-05-15 14:10:00,56.0,46.7,29.76,SW,227,4.0,5.0,71,0.00,,,0.00,Wunderground v.1.15,2013-05-15 18:10:00,
2013-05-15 14:15:00,56.0,46.4,29.77,WSW,238,4.0,5.0,70,0.00,,,0.00,Wunderground v.1.15,2013-05-15 18:15:00,
2013-05-15 14:20:00,55.5,46.2,29.76,WSW,241,4.0,4.0,71,0.00,,,0.00,Wunderground v.1.15,2013-05-15 18:20:00,
2013-05-15 14:25:00,55.5,45.9,29.76,WSW,243,5.0,5.0,70,0.00,,,0.00,Wunderground v.1.15,2013-05-15 18:25:00,
2013-05-15 14:30:00,55.3,46.1,29.75,West,259,4.0,4.0,71,0.00,,,0.00,Wunderground v.1.15,2013-05-15 18:30:00,
2013-05-15 14:40:00,54.6,45.8,29.76,WSW,238,3.0,6.0,72,0.00,,,0.00,Wunderground v.1.15,2013-05-15 18:40:00,
2013-05-15 14:50:00,53.7,46.3,29.76,SW,235,4.0,4.0,76,0.00,,,0.00,Wunderground v.1.15,2013-05-15 18:50:00,
2013-05-15 15:00:00,55.1,46.6,29.75,WSW,238,5.0,5.0,73,0.00,,,0.00,Wunderground v.1.15,2013-05-15 19:00:00,
2013-05-15 15:05:00,54.6,45.8,29.75,WSW,243,5.0,5.0,72,0.00,,,0.00,Wunderground v.1.15,2013-05-15 19:05:00,
2013-05-15 15:15:00,54.6,46.5,29.75,WSW,242,6.0,6.0,74,0.00,,,0.00,Wunderground v.1.15,2013-05-15 19:15:00,
2013-05-15 15:20:00,55.5,47.3,29.75,SW,227,5.0,6.0,74,0.00,,,0.00,Wunderground v.1.15,2013-05-15 19:20:00,
2013-05-15 15:30:00,56.8,47.9,29.75,SW,226,4.0,4.0,72,0.00,,,0.00,Wunderground v.1.15,2013-05-15 19:30:00,
2013-05-15 15:35:00,56.7,46.3,29.75,SW,221,3.0,4.0,68,0.00,,,0.00,Wunderground v.1.15,2013-05-15 19:35:00,
2013-05-15 15:40:00,56.4,45.6,29.75,SSW,208,3.0,5.0,67,0.00,,,0.00,Wunderground v.1.15,2013-05-15 19:40:00,
2013-05-15 15:50:00,59.0,47.2,29.74,SSW,205,4.0,4.0,65,0.00,,,0.00,Wunderground v.1.15,2013-05-15 19:50:00,
2013-05-15 15:55:00,59.5,46.9,29.74,WSW,238,3.0,4.0,63,0.00,,,0.00,Wunderground v.1.15,2013-05-15 19:55:00,
2013-05-15 16:00:00,59.6,46.1,29.73,SW,221,3.0,4.0,61,0.00,,,0.00,Wunderground v.1.15,2013-05-15 20:00:00,
2013-05-15 16:10:00,59.5,45.2,29.73,SW,223,5.0,6.0,59,0.00,,,0.00,Wunderground v.1.15,2013-05-15 20:10:00,
2013-05-15 16:20:00,59.5,45.2,29.73,SSW,195,5.0,7.0,59,0.00,,,0.00,Wunderground v.1.15,2013-05-15 20:20:00,
2013-05-15 16:25:00,59.0,45.6,29.73,SW,232,5.0,7.0,61,0.00,,,0.00,Wunderground v.1.15,2013-05-15 20:25:00,
2013-05-15 16:30:00,57.9,45.0,29.73,SW,223,4.0,4.0,62,0.00,,,0.00,Wunderground v.1.15,2013-05-15 20:30:00,
2013-05-15 16:35:00,56.5,44.9,29.74,SW,224,3.0,4.0,65,0.00,,,0.00,Wunderground v.1.15,2013-05-15 20:35:00,
2013-05-15 16:40:00,55.6,44.8,29.74,SW,227,3.0,4.0,67,0.00,,,0.00,Wunderground v.1.15,2013-05-15 20:40:00,
2013-05-15 16:45:00,55.8,45.8,29.74,SW,226,3.0,4.0,69,0.00,,,0.00,Wunderground v.1.15,2013-05-15 20:45:00,
2013-05-15 16:50:00,56.4,46.7,29.74,SW,225,4.0,5.0,70,0.00,,,0.00,Wunderground v.1.15,2013-05-15 20:50:00,
2013-05-15 17:00:00,57.7,47.2,29.73,SW,234,5.0,5.0,68,0.00,,,0.00,Wunderground v.1.15,2013-05-15 21:00:00,
2013-05-15 17:20:00,56.7,44.7,29.73,SSW,213,5.0,5.0,64,0.00,,,0.00,Wunderground v.1.15,2013-05-15 21:20:00,
2013-05-15 17:30:00,56.0,44.4,29.74,SW,226,5.0,5.0,65,0.00,,,0.00,Wunderground v.1.15,2013-05-15 21:30:00,
2013-05-15 17:40:00,56.3,45.9,29.73,SW,232,5.0,5.0,68,0.00,,,0.00,Wunderground v.1.15,2013-05-15 21:40:00,
2013-05-15 17:50:00,56.0,44.0,29.74,SW,234,4.0,4.0,64,0.00,,,0.00,Wunderground v.1.15,2013-05-15 21:50:00,
2013-05-15 18:00:00,56.3,44.3,29.74,WSW,240,4.0,6.0,64,0.00,,,0.00,Wunderground v.1.15,2013-05-15 22:00:00,
2013-05-15 18:05:00,56.1,44.5,29.74,SW,230,4.0,6.0,65,0.00,,,0.00,Wunderground v.1.15,2013-05-15 22:05:00,
2013-05-15 18:10:00,55.6,44.0,29.74,SW,225,4.0,5.0,65,0.00,,,0.00,Wunderground v.1.15,2013-05-15 22:10:00,
2013-05-15 18:20:00,56.0,45.2,29.74,WSW,244,5.0,5.0,67,0.00,,,0.00,Wunderground v.1.15,2013-05-15 22:20:00,
2013-05-15 18:25:00,56.0,44.8,29.74,SW,236,6.0,6.0,66,0.00,,,0.00,Wunderground v.1.15,2013-05-15 22:25:00,
2013-05-15 18:30:00,55.7,44.5,29.74,WSW,241,5.0,5.0,66,0.00,,,0.00,Wunderground v.1.15,2013-05-15 22:30:00,
2013-05-15 18:35:00,55.6,44.8,29.74,WSW,240,5.0,5.0,67,0.00,,,0.00,Wunderground v.1.15,2013-05-15 22:35:00,
2013-05-15 18:45:00,54.9,44.9,29.74,West,260,5.0,6.0,69,0.00,,,0.00,Wunderground v.1.15,2013-05-15 22:45:00,
2013-05-15 18:55:00,54.8,44.0,29.74,WSW,239,5.0,7.0,67,0.00,,,0.00,Wunderground v.1.15,2013-05-15 22:55:00,
2013-05-15 19:00:00,54.8,44.0,29.74,SW,236,6.0,6.0,67,0.00,,,0.00,Wunderground v.1.15,2013-05-15 23:00:00,
2013-05-15 19:10:00,55.0,44.2,29.75,WSW,242,6.0,8.0,67,0.00,,,0.00,Wunderground v.1.15,2013-05-15 23:10:00,
2013-05-15 19:15:00,54.4,43.7,29.75,WSW,245,6.0,8.0,67,0.00,,,0.00,Wunderground v.1.15,2013-05-15 23:15:00,
2013-05-15 19:20:00,54.2,43.9,29.75,WSW,247,6.0,6.0,68,0.00,,,0.00,Wunderground v.1.15,2013-05-15 23:20:00,
2013-05-15 19:25:00,54.6,44.2,29.75,WSW,244,6.0,6.0,68,0.00,,,0.00,Wunderground v.1.15,2013-05-15 23:25:00,
2013-05-15 19:30:00,54.9,44.1,29.75,WSW,240,6.0,7.0,67,0.00,,,0.00,Wunderground v.1.15,2013-05-15 23:30:00,
2013-05-15 19:35:00,54.9,44.1,29.75,WSW,237,7.0,8.0,67,0.00,,,0.00,Wunderground v.1.15,2013-05-15 23:35:00,
2013-05-15 19:40:00,54.3,43.6,29.75,WSW,244,7.0,7.0,67,0.00,,,0.00,Wunderground v.1.15,2013-05-15 23:40:00,
2013-05-15 19:50:00,53.8,42.7,29.75,WSW,254,5.0,5.0,66,0.00,,,0.00,Wunderground v.1.15,2013-05-15 23:50:00,
2013-05-15 19:55:00,53.7,43.0,29.75,WSW,253,4.0,5.0,67,0.00,,,0.00,Wunderground v.1.15,2013-05-15 23:55:00,
2013-05-15 20:00:00,53.8,43.1,29.75,WSW,258,2.0,2.0,67,0.00,,,0.00,Wunderground v.1.15,2013-05-16 00:00:00,
2013-05-15 20:05:00,53.8,43.1,29.75,West,260,1.0,2.0,67,0.00,,,0.00,Wunderground v.1.15,2013-05-16 00:05:00,
2013-05-15 20:10:00,53.7,43.8,29.75,West,263,1.0,1.0,69,0.00,,,0.00,Wunderground v.1.15,2013-05-16 00:10:00,
2013-05-15 20:15:00,53.6,42.9,29.75,West,263,1.0,2.0,67,0.00,,,0.00,Wunderground v.1.15,2013-05-16 00:15:00,
2013-05-15 20:25:00,57.5,42.8,29.75,West,264,5.0,10.0,58,0.00,,,0.00,Wunderground v.1.15,2013-05-16 00:25:00,
2013-05-15 20:30:00,59.9,43.2,29.75,West,259,6.0,6.0,54,0.00,,,0.00,Wunderground v.1.15,2013-05-16 00:30:00,
2013-05-15 20:35:00,59.4,43.2,29.76,West,260,5.0,6.0,55,0.00,,,0.00,Wunderground v.1.15,2013-05-16 00:35:00,
2013-05-15 20:40:00,59.0,43.8,29.76,West,260,2.0,2.0,57,0.00,,,0.00,Wunderground v.1.15,2013-05-16 00:40:00,
2013-05-15 20:45:00,58.4,44.6,29.76,West,260,0.0,2.0,60,0.00,,,0.00,Wunderground v.1.15,2013-05-16 00:45:00,
2013-05-15 20:50:00,57.7,44.3,29.76,West,261,0.0,2.0,61,0.00,,,0.00,Wunderground v.1.15,2013-05-16 00:50:00,
2013-05-15 21:00:00,56.7,43.4,29.77,ENE,63,0.0,2.0,61,0.00,,,0.00,Wunderground v.1.15,2013-05-16 01:00:00,
2013-05-15 21:10:00,56.6,43.3,29.77,NNW,344,1.0,2.0,61,0.00,,,0.00,Wunderground v.1.15,2013-05-16 01:10:00,
2013-05-15 21:15:00,57.5,43.7,29.77,NE,42,1.0,2.0,60,0.00,,,0.00,Wunderground v.1.15,2013-05-16 01:15:00,
2013-05-15 21:20:00,57.8,43.6,29.78,NNW,340,1.0,1.0,59,0.00,,,0.00,Wunderground v.1.15,2013-05-16 01:20:00,
2013-05-15 21:25:00,58.0,44.2,29.78,NNW,340,0.0,2.0,60,0.00,,,0.00,Wunderground v.1.15,2013-05-16 01:25:00,
2013-05-15 21:30:00,57.8,46.5,29.78,West,276,1.0,2.0,66,0.00,,,0.00,Wunderground v.1.15,2013-05-16 01:30:00,
2013-05-15 21:40:00,56.0,45.6,29.78,West,276,0.0,2.0,68,0.00,,,0.00,Wunderground v.1.15,2013-05-16 01:40:00,
2013-05-15 21:50:00,54.4,43.7,29.78,West,276,0.0,2.0,67,0.00,,,0.00,Wunderground v.1.15,2013-05-16 01:50:00,
2013-05-15 21:55:00,54.0,43.3,29.79,West,276,0.0,2.0,67,0.00,,,0.00,Wunderground v.1.15,2013-05-16 01:55:00,
2013-05-15 22:00:00,54.2,43.9,29.79,West,276,0.0,2.0,68,0.00,,,0.00,Wunderground v.1.15,2013-05-16 02:00:00,
2013-05-15 22:05:00,54.0,43.7,29.79,West,277,0.0,2.0,68,0.00,,,0.00,Wunderground v.1.15,2013-05-16 02:05:00,
2013-05-15 22:15:00,53.5,43.6,29.79,West,277,0.0,2.0,69,0.00,,,0.00,Wunderground v.1.15,2013-05-16 02:15:00,
2013-05-15 22:20:00,53.1,43.9,29.80,West,276,0.0,2.0,71,0.00,,,0.00,Wunderground v.1.15,2013-05-16 02:20:00,
2013-05-15 22:25:00,52.6,43.8,29.80,West,276,0.0,2.0,72,0.00,,,0.00,Wunderground v.1.15,2013-05-16 02:25:00,
2013-05-15 22:30:00,52.2,43.8,29.80,West,276,0.0,2.0,73,0.00,,,0.00,Wunderground v.1.15,2013-05-16 02:30:00,
2013-05-15 22:35:00,51.8,43.8,29.80,West,276,0.0,2.0,74,0.00,,,0.00,Wunderground v.1.15,2013-05-16 02:35:00,
2013-05-15 22:45:00,51.4,43.7,29.80,West,276,0.0,2.0,75,0.00,,,0.00,Wunderground v.1.15,2013-05-16 02:45:00,
2013-05-15 23:00:00,50.5,43.6,29.80,West,276,0.0,2.0,77,0.00,,,0.00,Wunderground v.1.15,2013-05-16 03:00:00,
2013-05-15 23:05:00,50.3,43.4,29.79,West,276,0.0,2.0,77,0.00,,,0.00,Wunderground v.1.15,2013-05-16 03:05:00,
2013-05-15 23:15:00,49.9,43.3,29.79,West,276,0.0,2.0,78,0.00,,,0.00,Wunderground v.1.15,2013-05-16 03:15:00,
2013-05-15 23:20:00,49.9,43.6,29.79,West,276,0.0,2.0,79,0.00,,,0.00,Wunderground v.1.15,2013-05-16 03:20:00,
2013-05-15 23:30:00,49.7,43.5,29.78,East,80,1.0,1.0,79,0.00,,,0.00,Wunderground v.1.15,2013-05-16 03:30:00,
2013-05-15 23:35:00,49.7,43.5,29.79,East,87,1.0,2.0,79,0.00,,,0.00,Wunderground v.1.15,2013-05-16 03:35:00,
2013-05-15 23:40:00,49.5,43.3,29.78,East,87,1.0,1.0,79,0.00,,,0.00,Wunderground v.1.15,2013-05-16 03:40:00,
2013-05-15 23:45:00,49.1,43.2,29.78,East,87,1.0,2.0,80,0.00,,,0.00,Wunderground v.1.15,2013-05-16 03:45:00,
2013-05-15 23:50:00,48.8,42.9,29.78,East,87,1.0,1.0,80,0.00,,,0.00,Wunderground v.1.15,2013-05-16 03:50:00,